Wind_Speed
7 6 4 4 3 3 3 3 4 3 4 4 4 5 6 6 7 6 5 4 4 4 4 4 6 7 8 8 9 9 8 7 7 7 7 6 6 8 9 11 10 7 5 4 6 8 8 5 5 5 6 6 5 4 4 5 7 5 3 2 4 3 4 5 6 6 3 2 4 9 17 13 6 11 11 7 10 15 14 16 18 17 21 22 19 15 12 9
7 5 5 4 4 4 4 5 5 4 5 5 5 6 6 7 8 8 6 5 5 5 5 6 7 9 10 10 9 9 8 7 6 7 7 6 8 10 10 11 10 7 5 5 8 7 6 4 3 3 4 5 3 4 4 4 7 5 3 2 5 5 6 6 7 8 5 3 8 11 15 15 10 10 11 6 7 11 11 13 16 19 21 23 23 20 17 14
7 5 4 4 5 5 6 6 6 6 7 7 6 6 6 8 9 8 7 5 4 5 6 7 7 9 10 10 9 8 9 9 7 6 5 5 8 10 10 10 8 5 4 5 9 8 6 4 3 2 3 3 3 4 3 4 5 4 3 2 7 6 5 7 8 10 9 5 7 9 11 14 14 10 9 8 6 6 10 13 13 18 24 24 24 21 19 16
7 5 4 4 5 6 7 8 8 8 8 7 7 6 6 7 8 7 7 5 4 5 6 7 7 8 9 10 9 8 10 10 6 3 2 5 8 9 9 8 6 4 3 5 9 10 7 5 4 3 3 3 3 3 4 5 5 3 5 5 6 5 3 9 11 11 11 6 5 7 6 9 15 12 9 7 4 5 14 21 19 20 23 21 23 21 18 17
7 5 4 5 6 7 8 8 8 8 8 7 7 6 5 7 7 7 6 6 5 6 6 6 6 7 8 9 9 9 9 6 1 1 4 7 8 10 9 8 7 5 3 3 7 9 9 7 5 3 2 2 2 1 3 6 5 2 4 6 5 5 3 8 10 10 9 7 4 5 5 6 10 12 14 12 7 9 13 15 16 16 17 16 19 19 18 18
6 5 5 6 6 7 7 8 9 8 8 8 7 6 6 7 7 6 6 6 6 6 6 6 6 7 8 9 10 9 5 2 2 4 7 8 10 11 10 9 8 6 5 4 6 7 8 7 5 2 1 2 1 2 4 5 6 4 4 6 6 6 5 6 7 11 11 8 5 5 6 7 6 7 14 18 18 20 14 8 8 7 8 12 15 16 17 17
6 5 6 6 6 7 8 8 8 9 9 8 7 7 6 7 7 7 6 6 6 6 6 7 7 8 9 10 10 9 6 5 6 6 7 9 11 11 9 9 8 7 6 5 5 7 8 6 4 2 1 2 2 3 5 4 5 5 4 4 6 8 9 9 8 11 12 10 8 6 6 6 8 6 6 16 25 25 20 16 14 11 9 10 12 14 15 15
6 6 6 6 6 7 8 8 8 8 8 8 7 7 7 7 7 7 7 7 8 7 7 7 8 9 10 11 10 10 9 6 4 5 8 10 11 10 8 8 7 7 7 6 6 8 8 5 3 2 1 1 2 2 3 3 3 4 5 4 3 6 9 11 10 11 12 11 10 7 7 8 8 6 5 16 25 22 20 20 17 15 13 12 12 12 13 14
7 7 6 6 7 8 9 9 8 7 8 8 7 7 7 8 8 8 8 8 8 8 8 9 9 10 11 11 11 10 6 3 4 7 10 11 10 9 8 7 6 6 7 6 6 8 8 5 4 2 1 2 2 2 1 0 3 2 4 5 4 6 8 9 10 10 11 10 8 6 7 9 6 5 8 15 16 11 10 8 8 9 10 12 12 12 12 13
7 7 6 7 7 8 9 9 9 9 9 9 9 9 9 9 10 9 9 9 9 9 9 9 10 11 11 11 9 5 4 5 7 9 11 11 10 9 8 7 7 7 6 6 6 7 8 6 6 2 2 3 2 2 1 3 3 3 4 6 8 10 11 9 9 10 10 8 8 6 5 6 2 2 4 4 4 4 6 8 7 7 7 8 9 10 11 11
7 7 7 7 8 8 9 9 10 10 11 11 11 10 10 10 11 10 10 9 10 10 9 9 10 11 11 11 7 4 6 8 8 10 11 10 8 8 8 7 7 7 6 6 5 6 7 8 7 5 3 2 2 2 2 2 3 5 6 8 10 10 12 10 9 10 8 5 7 7 4 4 1 2 2 6 8 9 12 14 12 9 6 6 7 9 10 11
7 8 7 7 8 8 9 10 11 11 12 13 12 11 10 10 10 11 10 9 10 11 10 10 10 11 12 12 9 7 8 8 8 11 10 9 9 8 7 7 7 6 6 5 5 6 7 8 8 8 5 3 1 0 1 1 3 5 4 5 9 8 9 7 5 8 7 2 3 4 3 5 4 1 9 14 12 11 14 18 18 14 9 6 6 7 7 7
7 7 7 8 8 9 10 11 11 12 13 13 12 11 10 10 11 11 10 9 10 10 10 10 10 11 11 11 9 8 8 8 8 9 9 10 9 7 7 6 6 6 5 4 4 5 6 6 6 8 7 4 2 1 2 2 2 4 2 1 5 8 6 5 3 3 6 2 2 5 1 6 4 3 16 22 20 18 18 19 19 16 12 8 4 2 2 2
7 7 7 8 8 9 10 11 11 12 13 14 12 11 11 12 11 10 9 8 9 9 9 9 10 10 10 9 8 8 8 8 7 8 10 10 8 7 6 5 6 5 3 2 2 3 3 2 2 4 5 4 3 2 2 4 3 2 2 2 3 3 5 6 3 5 5 1 3 6 1 7 3 8 20 26 25 21 19 18 16 14 11 10 10 10 11 11
7 7 8 8 8 10 11 12 12 12 14 15 13 13 13 12 11 9 9 8 8 8 8 8 9 9 9 8 8 7 6 6 6 9 11 9 6 6 6 5 6 5 3 1 1 2 2 1 2 2 3 3 2 2 2 4 3 2 1 3 3 1 5 9 3 4 3 1 2 5 1 6 2 11 26 29 24 19 18 20 18 16 17 19 21 23 24 24
7 7 8 8 9 10 11 12 12 13 14 15 14 15 15 12 11 9 10 9 6 6 7 7 7 7 6 6 6 5 6 6 9 11 11 9 6 5 6 5 6 6 4 3 2 2 2 2 2 1 2 2 3 3 3 4 4 3 1 3 3 1 3 7 3 1 3 2 1 2 2 4 4 15 28 26 18 18 22 25 26 27 28 30 31 33 33 32
7 8 9 10 11 11 12 13 13 14 14 15 15 16 15 12 11 11 10 8 6 8 9 6 5 6 6 5 5 6 8 10 12 12 9 8 7 6 6 5 5 6 5 4 4 4 3 3 3 2 1 2 2 4 3 3 4 3 1 1 4 2 2 4 3 4 6 4 1 3 1 2 7 17 28 26 20 24 27 26 29 31 32 34 36 37 37 36
8 9 9 11 12 12 13 13 14 15 15 16 15 16 15 11 12 11 6 5 8 10 7 4 3 4 5 4 6 9 11 13 13 10 7 6 6 6 6 5 4 5 4 4 5 5 5 2 2 1 3 3 2 5 2 4 3 2 3 2 3 2 3 4 3 3 5 3 2 4 3 6 11 14 24 26 26 31 27 26 30 30 32 34 36 38 39 40
9 10 11 12 13 14 14 15 15 15 15 16 15 16 14 11 12 7 2 6 8 4 2 2 2 2 5 9 11 11 12 13 11 7 6 5 7 8 6 5 4 4 2 2 3 3 3 1 1 0 1 2 2 5 7 8 6 4 4 4 3 4 4 5 5 4 2 3 5 6 5 8 11 11 17 20 26 30 26 27 29 28 31 32 35 37 38 40
10 11 12 13 14 15 15 16 16 16 16 14 14 15 11 8 8 2 3 7 4 1 4 5 6 7 9 11 12 11 11 10 8 5 5 6 8 8 5 4 3 1 0 2 2 0 2 0 2 5 6 7 7 7 6 4 5 3 3 3 4 5 5 4 2 5 1 4 5 6 9 9 10 9 12 16 24 25 23 25 26 26 30 31 33 35 35 37
11 12 13 14 14 15 16 16 16 16 15 13 13 12 7 5 4 3 7 6 3 4 6 6 7 8 8 9 10 11 11 8 5 5 5 7 9 6 3 2 2 1 2 1 1 1 2 1 5 7 8 6 5 5 4 4 4 2 2 3 4 4 5 4 1 5 2 4 2 6 12 10 8 7 11 17 20 17 17 20 22 25 28 30 32 33 33 32
12 12 13 13 14 15 15 16 17 15 13 13 13 9 5 5 3 4 6 4 5 5 4 4 6 6 7 8 8 10 11 6 4 4 5 8 8 5 3 2 3 1 3 2 1 4 2 4 7 6 4 3 4 4 5 3 3 3 2 1 3 3 3 4 2 5 4 4 2 6 12 8 6 7 11 17 15 14 18 21 22 25 27 29 31 31 31 30
13 13 13 13 14 15 15 17 16 13 13 14 12 8 6 6 4 5 5 4 4 3 2 4 5 5 6 5 6 10 9 4 4 5 8 10 7 4 3 1 2 1 3 1 3 1 2 5 6 3 3 5 4 4 5 3 1 2 3 1 3 3 1 2 3 3 4 3 5 9 11 5 5 7 10 15 15 17 21 24 26 27 27 27 28 30 31 31
13 13 13 13 14 15 17 17 13 12 14 13 10 8 7 6 5 6 5 2 3 3 2 4 4 4 4 5 7 9 7 4 5 6 9 10 6 4 2 1 2 0 2 1 5 4 5 5 2 2 3 4 2 2 3 3 2 3 4 5 4 3 2 3 2 2 3 3 5 9 8 3 4 6 6 9 13 16 18 22 25 26 26 25 26 29 31 31
14 13 13 14 15 16 18 16 11 12 13 11 9 9 7 5 5 6 4 1 2 4 2 2 3 3 4 6 8 11 8 4 5 7 7 9 6 3 2 1 2 1 3 1 3 3 6 4 1 1 4 4 3 1 2 5 2 4 4 6 6 4 3 2 2 3 4 1 3 4 3 2 3 5 4 5 7 10 11 16 19 21 24 26 28 30 29 30
14 14 14 14 14 17 17 13 11 12 11 9 9 9 6 4 5 5 3 3 0 3 2 1 2 3 5 8 13 12 5 2 6 6 7 10 7 3 2 1 1 1 3 2 1 2 3 3 3 3 4 5 3 2 4 5 4 2 3 4 6 6 4 2 1 3 2 2 2 2 3 3 1 3 3 3 4 6 7 11 15 19 24 28 30 31 30 30
14 15 14 14 14 17 15 11 11 11 9 9 9 8 5 4 5 3 3 4 2 2 1 2 2 2 7 13 14 7 1 6 7 4 7 11 7 3 2 3 0 1 1 1 2 2 2 3 5 4 5 4 2 2 3 6 6 2 3 4 5 3 1 3 4 3 2 2 2 1 3 4 2 2 1 1 5 6 6 8 13 19 24 27 29 30 30 29
14 14 14 15 16 16 14 10 10 10 9 9 8 7 5 5 5 1 3 3 2 2 1 3 2 3 11 13 8 5 2 6 4 3 11 10 5 3 1 2 3 3 2 2 3 4 1 1 2 2 4 2 2 3 4 5 2 4 4 3 2 1 2 3 4 2 1 1 3 3 3 4 2 4 3 1 5 5 6 6 10 16 21 25 29 30 29 27
13 14 14 16 16 15 12 10 10 10 10 9 7 6 5 5 3 2 4 1 2 2 1 4 3 5 15 10 4 8 5 2 4 7 10 6 4 5 1 2 2 2 2 2 5 4 0 0 1 2 1 2 4 3 4 5 1 2 5 3 3 3 3 3 4 3 2 1 3 4 2 4 2 4 3 2 3 4 5 5 7 14 20 23 28 30 27 24
14 14 15 16 15 13 10 9 10 11 10 9 6 5 4 3 2 4 2 1 1 2 2 4 3 6 14 8 3 10 6 2 7 9 7 4 5 7 3 1 2 3 1 3 2 4 2 1 0 2 1 3 2 1 2 4 2 2 4 3 4 4 4 3 2 3 3 1 5 4 1 5 3 3 3 1 1 4 6 5 6 12 18 22 27 28 24 20
15 15 15 14 13 11 9 10 11 11 10 8 6 5 3 1 4 5 0 2 1 3 4 3 3 5 9 5 2 8 5 4 9 9 7 5 6 9 6 1 3 4 3 5 2 4 4 2 0 1 2 1 1 1 0 0 2 3 3 3 3 3 3 3 4 3 3 3 5 3 1 6 3 1 1 2 3 4 7 5 5 9 14 20 25 26 21 17
15 14 14 13 11 9 9 11 12 11 9 7 6 4 1 2 3 1 2 3 2 3 3 2 3 4 5 3 2 4 4 4 7 6 3 3 4 5 5 2 2 4 4 3 3 4 3 1 2 3 1 1 2 1 2 4 5 4 3 3 3 3 3 2 3 1 2 4 1 1 2 5 4 2 4 5 6 8 11 10 9 11 14 18 23 24 20 15
14 14 13 12 9 8 10 12 11 9 8 6 5 2 4 4 1 2 3 3 1 2 2 1 3 3 3 3 3 4 2 2 5 5 1 1 4 2 2 2 1 2 2 2 2 5 4 4 4 3 1 3 3 1 2 2 3 3 1 3 2 2 2 3 3 1 3 2 1 1 3 3 3 3 4 6 7 11 15 15 15 16 16 17 21 23 19 15
14 13 12 8 7 9 11 11 10 8 7 5 3 2 4 1 3 1 2 3 2 3 2 1 4 4 2 2 3 4 2 2 4 5 3 3 4 3 4 5 4 3 1 1 1 2 1 4 3 1 1 3 2 1 2 1 1 2 2 4 2 3 3 3 4 2 3 2 2 3 2 2 4 3 3 6 10 13 14 14 16 17 15 16 20 23 20 15
13 12 8 5 7 9 10 10 9 7 6 4 3 4 3 2 3 0 2 4 2 4 3 2 3 4 3 3 3 2 2 2 4 5 4 3 2 2 3 4 5 3 2 2 2 0 0 4 4 2 3 1 2 1 1 3 1 1 2 3 1 3 4 1 3 4 3 1 3 2 2 1 3 4 3 6 10 13 13 12 15 15 14 17 22 26 22 15
13 9 4 5 8 9 9 9 7 7 6 3 5 4 2 3 1 2 2 2 1 2 5 5 4 4 4 4 4 4 3 1 3 3 3 2 1 1 2 2 3 4 3 1 1 1 1 4 5 3 2 1 2 2 0 1 0 0 1 0 2 3 5 3 1 1 3 1 2 1 4 2 3 3 1 4 6 9 11 12 15 15 16 19 23 26 20 13
11 6 3 6 10 9 8 8 6 6 6 3 6 1 3 2 0 2 1 2 1 0 3 3 2 2 2 3 4 5 4 2 2 3 2 1 1 1 3 2 1 3 2 1 2 1 1 4 5 1 0 1 1 1 2 2 2 2 0 3 2 1 4 4 0 3 4 1 3 1 4 4 4 3 1 5 7 8 9 11 14 16 15 17 22 23 15 9
9 4 2 7 10 9 7 7 6 5 4 5 4 1 2 0 0 1 1 1 1 1 4 1 2 1 0 1 3 5 4 4 3 3 2 1 2 2 2 3 1 2 4 2 1 1 2 3 6 1 2 3 3 2 3 3 1 2 2 2 2 1 0 1 1 0 1 2 3 3 1 4 3 2 2 5 7 7 8 9 10 13 13 15 20 20 11 7
8 2 3 8 10 9 7 7 6 3 3 5 2 1 0 1 1 1 2 1 1 1 2 1 1 2 1 1 2 4 3 3 3 3 2 1 2 2 3 1 2 3 7 3 2 1 1 0 5 3 2 3 4 3 2 4 3 3 2 2 2 3 3 1 1 2 1 2 2 2 1 1 1 1 3 5 5 6 8 7 8 11 10 14 20 17 9 10
6 1 3 9 10 8 6 6 6 5 5 3 3 2 1 1 1 1 2 2 1 1 0 1 1 2 2 1 1 2 2 1 1 1 1 1 2 1 3 2 2 6 9 3 2 1 2 1 3 5 3 3 2 2 0 1 3 3 3 3 3 1 0 0 0 1 1 2 2 1 2 1 1 3 5 6 4 5 6 6 7 9 9 14 20 15 9 13
4 1 4 9 9 7 5 5 7 5 4 2 1 0 1 1 1 2 2 1 1 1 1 2 2 1 1 2 1 1 1 2 1 0 1 1 2 1 2 2 1 4 7 3 2 2 1 1 2 4 4 2 3 3 1 2 1 1 1 2 1 2 1 1 2 2 1 1 3 2 2 2 2 3 4 4 3 5 8 8 9 10 9 16 20 13 9 14
3 2 6 11 10 6 2 4 5 3 3 2 1 1 1 1 2 2 2 1 1 1 1 2 1 1 1 1 1 1 1 2 1 0 1 1 1 1 2 4 3 2 2 1 1 2 1 2 0 4 4 4 6 3 1 2 2 4 3 2 1 1 3 3 2 3 2 1 1 1 1 2 1 3 6 6 4 5 9 10 11 12 11 17 20 13 10 15
3 3 7 12 11 4 3 3 4 4 3 1 0 0 1 1 1 1 2 2 2 1 2 1 0 1 0 1 0 1 1 1 1 1 1 1 1 1 2 4 4 1 0 1 2 2 2 2 1 4 4 3 5 4 2 2 4 4 3 3 2 2 1 4 4 2 1 2 1 1 2 3 2 4 7 7 6 6 8 12 15 14 14 20 20 13 12 17
4 4 8 13 12 3 3 2 1 2 2 1 1 2 2 1 2 2 1 2 2 1 1 1 0 0 1 1 1 1 1 0 1 0 1 1 1 2 3 4 3 0 1 1 1 3 3 0 2 3 4 5 5 5 5 4 4 3 2 4 3 3 3 1 1 2 1 1 2 2 3 3 3 4 5 6 8 9 10 13 16 15 16 21 19 13 15 18
2 3 6 13 14 9 6 3 3 3 0 1 3 3 2 2 2 3 1 2 2 1 1 1 1 1 1 0 0 2 1 0 1 2 2 0 1 2 3 4 3 1 2 2 2 2 1 2 2 2 0 2 3 3 3 3 2 2 2 6 6 5 5 1 0 3 0 2 3 2 3 2 3 2 5 7 8 9 9 13 16 16 20 22 17 14 17 20
2 2 3 8 14 16 13 7 4 4 2 2 2 2 2 1 1 3 3 2 3 2 1 1 2 1 1 3 2 3 2 1 1 2 2 2 3 2 3 4 3 4 5 4 2 1 1 1 2 4 5 4 4 4 4 2 1 2 3 7 7 5 4 3 3 2 2 0 3 1 2 2 2 1 6 7 8 8 9 15 19 21 24 21 14 14 17 21
3 2 2 3 7 11 12 10 9 5 2 2 2 1 2 2 2 3 3 2 2 3 1 1 2 2 2 3 3 2 3 2 2 1 1 1 4 3 4 3 3 7 7 3 2 2 3 3 3 2 2 3 3 2 2 3 4 3 2 6 7 7 6 7 4 0 2 3 3 3 1 4 2 1 5 7 8 8 10 16 20 23 24 18 13 16 20 24
4 2 2 3 2 2 4 7 8 7 5 3 2 1 3 3 3 2 2 2 3 3 2 2 3 3 0 1 1 1 4 4 3 2 1 2 3 4 5 2 3 9 9 3 2 3 5 1 2 1 3 5 3 3 5 8 6 4 5 5 6 8 8 7 3 0 3 2 3 2 4 4 2 2 5 7 10 10 13 17 21 24 21 14 15 19 22 25
5 4 4 5 3 2 2 3 3 5 6 4 2 2 2 3 3 1 2 2 3 3 3 2 4 5 2 1 2 0 3 3 3 3 1 2 3 3 4 2 2 9 10 4 3 3 3 0 2 2 3 6 6 5 5 8 6 5 7 6 5 5 6 5 1 2 2 2 3 1 5 5 0 2 5 10 14 15 17 20 23 23 18 13 16 20 23 26
5 4 3 6 6 5 4 3 2 3 4 4 3 2 1 1 1 2 1 1 2 3 4 2 5 6 3 1 2 1 2 1 2 3 1 1 3 1 1 1 2 8 9 4 2 3 3 2 1 3 3 3 4 5 5 6 7 6 6 6 5 4 5 4 3 3 3 2 2 3 5 4 1 6 10 14 16 16 16 19 23 21 15 14 18 22 25 27
6 5 4 6 4 6 5 3 3 3 3 4 2 1 1 0 1 2 1 0 0 1 2 3 5 5 3 3 4 2 3 1 1 1 1 1 1 0 1 1 1 5 6 3 3 4 4 3 3 4 3 2 1 3 3 3 5 5 6 7 6 4 4 3 3 1 1 3 4 5 5 3 4 11 13 12 14 16 15 19 23 18 13 16 20 24 28 30
6 5 4 4 2 5 5 3 3 4 1 2 1 1 2 2 2 1 0 1 1 1 3 4 3 2 3 4 4 4 4 3 2 2 3 3 2 3 3 5 5 3 3 2 2 2 2 2 3 4 2 2 2 2 2 1 3 3 4 5 4 1 3 5 4 2 1 1 2 4 4 3 7 12 10 9 13 14 14 21 23 15 13 18 22 27 32 33
Wind_Direction
26 24 23 29 31 28 18 8 6 5 2 351 341 341 340 338 332 324 315 317 322 315 300 288 298 307 312 317 320 326 325 300 278 275 274 277 297 315 329 332 326 309 292 252 204 195 201 211 231 240 236 227 230 231 212 211 200 189 141 164 223 194 203 192 186 196 163 235 225 191 188 181 208 212 211 232 228 230 237 233 227 228 230 235 242 244 249 247
17 17 17 18 16 13 3 354 349 344 342 337 336 335 340 343 338 334 318 301 304 306 299 297 306 310 313 317 316 323 330 313 289 281 279 286 299 311 319 321 321 310 286 235 209 207 210 213 238 241 229 219 227 232 218 212 197 183 120 172 225 200 209 203 185 187 170 215 205 196 195 193 210 204 194 214 226 220 234 241 228 231 235 236 241 243 247 246
6 5 4 6 3 359 352 346 340 335 332 331 332 332 341 346 343 343 336 313 291 294 297 301 312 317 320 320 316 318 327 317 296 282 280 294 303 307 313 314 319 311 281 233 215 219 222 228 264 278 259 240 239 236 228 215 207 203 157 212 242 215 226 231 209 200 202 221 194 196 201 204 220 209 188 211 234 221 226 234 220 227 238 237 239 241 243 241
358 357 352 353 352 348 343 342 338 332 327 324 325 329 338 345 347 347 347 337 306 296 298 304 314 323 327 325 321 317 324 322 297 270 297 317 318 312 315 319 327 323 280 240 224 226 230 244 267 295 300 267 259 247 232 217 213 198 172 213 238 191 232 245 227 220 221 229 206 191 183 215 229 218 205 202 218 253 239 239 234 239 251 246 240 242 241 237
353 355 353 351 349 348 348 352 349 341 334 329 329 331 335 344 350 347 344 339 320 307 304 309 314 322 329 326 323 317 328 339 282 239 322 324 331 326 325 324 329 338 316 258 232 229 232 240 256 291 313 279 277 255 243 223 205 205 213 238 245 166 210 257 232 221 222 220 215 178 166 220 225 218 219 200 191 242 247 252 251 254 265 260 250 246 240 236
355 357 356 352 353 356 1 3 0 357 352 347 344 340 335 339 345 344 339 334 322 310 309 315 315 318 327 326 324 319 324 334 288 304 310 317 327 327 326 322 326 334 330 291 243 227 227 230 242 271 348 313 250 205 263 241 200 230 266 266 262 217 219 269 242 221 223 215 209 196 211 223 203 227 231 213 226 246 253 272 277 276 268 257 254 248 241 239
3 2 358 357 2 5 5 4 2 3 2 359 357 349 339 337 340 336 329 328 319 308 309 316 317 318 321 324 327 321 304 288 298 307 313 322 324 324 323 316 321 327 328 306 250 222 221 224 235 253 66 344 252 219 279 272 205 217 271 289 276 251 238 260 264 236 228 224 232 233 235 226 202 232 246 227 240 252 258 269 279 282 268 253 250 246 247 248
5 3 4 9 11 7 5 4 1 2 3 2 0 354 348 346 343 336 328 324 315 304 305 311 315 319 321 323 326 324 310 296 308 323 328 330 323 322 316 312 322 323 321 302 253 222 224 225 226 227 147 252 244 244 295 299 251 206 244 283 291 270 257 262 268 247 234 234 248 250 243 244 231 244 274 257 260 267 269 272 277 274 263 254 251 251 254 252
8 9 14 15 7 2 2 3 4 4 0 358 355 350 348 346 344 340 335 327 316 304 300 303 304 311 318 320 324 326 318 311 324 327 333 331 321 315 309 310 317 311 309 293 256 228 225 215 200 181 208 255 248 274 349 61 261 227 242 288 302 288 289 280 267 246 240 243 242 242 256 259 258 276 280 276 279 285 284 291 294 282 270 260 255 257 260 260
21 19 14 6 1 0 1 3 2 358 351 346 342 338 335 332 331 329 327 323 316 307 302 300 298 305 312 316 325 328 314 320 322 326 330 326 315 307 302 306 306 299 298 283 261 240 230 219 211 213 293 265 214 256 242 159 246 316 309 299 290 285 293 283 264 251 243 247 237 222 258 268 264 276 272 311 3 346 337 350 339 322 304 282 267 261 261 264
22 15 10 7 6 4 2 359 354 349 344 340 334 330 328 326 324 319 312 308 306 304 302 299 298 300 305 310 305 276 303 315 318 324 325 321 315 305 297 295 298 293 289 277 258 250 241 236 234 240 265 230 192 244 235 209 277 316 326 307 294 303 303 274 251 249 229 245 242 212 259 299 192 211 309 348 340 332 353 10 9 358 329 299 275 263 258 256
16 13 15 15 10 6 1 355 350 347 343 341 336 329 326 325 325 319 306 294 292 296 297 295 294 296 302 301 289 282 304 311 314 320 321 322 321 312 297 286 291 290 287 277 254 252 249 249 246 241 231 190 182 259 247 305 309 303 349 317 301 338 326 282 263 241 204 215 232 177 312 307 228 247 14 7 350 352 16 21 18 18 5 338 295 274 270 265
13 14 17 13 9 5 360 354 350 347 345 342 337 329 324 323 323 319 310 293 283 289 294 291 288 292 296 297 294 294 301 309 313 316 321 324 319 313 298 280 279 283 285 278 254 252 249 253 251 238 226 204 206 219 264 340 346 287 6 25 312 350 329 300 355 199 178 189 180 136 309 287 259 20 24 17 12 13 17 14 10 14 18 18 10 335 354 353
10 11 11 8 6 3 0 357 350 350 352 350 341 331 327 323 318 313 310 296 281 289 293 287 284 285 286 287 295 297 298 310 312 312 323 323 314 307 295 275 268 267 264 258 252 248 240 249 249 227 213 206 208 198 306 359 31 300 331 31 353 345 284 304 359 146 151 186 171 131 185 275 283 37 15 4 4 11 19 21 18 19 34 60 76 85 81 73
6 6 5 3 1 0 359 356 351 349 352 355 350 339 335 328 319 310 306 300 290 296 295 284 278 275 279 283 289 296 303 310 309 316 325 321 315 308 295 275 260 252 240 221 209 210 204 207 220 204 185 185 154 122 0 353 9 17 323 313 342 189 267 313 349 140 131 132 154 120 202 277 312 19 2 360 2 16 39 44 50 61 75 87 89 90 88 83
4 2 360 357 355 354 351 349 349 346 345 350 350 346 341 332 323 313 304 302 294 307 308 287 268 260 274 293 293 301 309 310 313 319 321 317 315 311 298 278 251 245 242 230 213 196 207 210 198 166 163 167 115 91 39 2 342 1 109 254 281 199 285 321 349 37 43 87 43 59 222 268 17 8 7 16 20 40 61 60 66 76 82 87 88 89 88 85
0 356 352 350 347 344 342 339 339 340 340 341 343 345 341 332 327 316 304 295 283 307 310 277 263 271 269 285 299 307 309 309 313 317 317 314 313 313 303 281 240 231 238 243 239 215 211 204 180 180 66 71 90 88 48 338 308 324 25 226 252 219 244 303 322 354 31 74 356 17 237 306 4 5 15 32 53 68 69 65 70 76 78 82 83 83 82 80
352 349 344 342 340 337 336 333 332 332 334 334 333 338 336 330 328 319 298 286 289 305 306 252 272 295 267 286 312 311 309 306 309 313 311 308 314 319 306 287 252 226 228 233 223 201 204 210 155 161 9 13 47 90 135 239 211 236 251 235 282 282 232 250 273 326 26 51 350 7 4 358 3 8 21 35 63 74 71 71 75 75 78 79 79 79 78 77
342 340 337 335 334 333 331 329 329 327 329 329 325 331 331 326 327 314 245 307 306 300 291 247 258 262 268 299 315 311 308 308 309 310 301 306 317 317 310 290 265 232 212 185 194 180 179 190 75 135 275 250 197 155 187 209 185 198 214 195 246 273 261 242 247 291 22 63 23 30 43 19 10 12 17 32 63 72 71 75 74 74 77 77 78 78 77 75
333 332 330 330 329 328 328 327 328 326 326 324 323 330 329 326 332 295 281 314 308 286 294 280 275 273 281 301 313 315 317 314 311 305 297 312 322 320 316 295 277 247 144 171 200 195 107 141 237 220 221 221 216 197 185 173 160 168 184 206 247 246 272 275 268 310 6 97 36 58 70 38 22 17 10 36 60 63 64 72 72 74 76 75 78 77 76 75
328 328 327 329 328 327 328 327 328 328 326 325 328 333 330 332 334 304 315 310 279 310 304 288 287 285 295 307 314 327 332 326 319 315 307 321 333 329 312 325 31 19 325 296 213 342 69 215 239 231 227 219 205 184 143 117 133 136 193 234 274 237 257 276 269 314 325 105 60 78 74 43 28 28 20 42 57 50 56 72 74 76 77 76 77 76 77 75
325 325 328 330 330 329 329 329 330 329 329 330 331 336 341 342 328 311 323 299 284 316 315 305 302 298 309 308 317 337 338 333 335 333 327 327 332 327 305 15 65 263 316 6 351 353 3 249 263 260 224 136 88 111 118 110 130 133 148 199 278 258 275 302 331 329 350 90 114 88 80 54 26 39 35 41 55 58 65 78 80 79 80 77 76 75 75 73
323 325 329 332 333 332 331 332 331 329 331 330 333 346 349 343 340 336 334 302 294 318 331 325 319 319 328 319 326 340 339 335 327 328 339 333 328 332 321 28 78 293 335 12 182 291 295 250 274 279 152 118 71 66 101 90 64 170 169 175 257 267 292 285 304 330 359 63 126 108 90 67 18 39 41 39 57 71 74 82 82 79 80 79 79 75 70 67
324 326 329 333 334 332 334 334 331 332 332 333 342 350 346 342 349 348 340 314 302 310 318 330 336 342 350 342 337 340 335 322 318 326 346 350 349 349 331 76 82 350 299 235 162 191 245 248 281 18 77 117 125 44 107 151 300 274 201 193 226 249 210 214 276 322 15 44 127 117 89 53 15 35 36 31 57 72 76 83 81 79 80 79 78 73 66 60
325 326 327 332 333 332 336 335 332 334 333 337 342 341 345 347 345 347 354 27 312 314 323 331 345 356 356 353 343 333 319 311 343 345 356 5 7 354 336 78 72 276 252 198 136 227 265 280 313 55 50 67 124 245 215 175 234 307 236 205 196 179 160 161 344 23 58 52 176 137 86 9 8 37 32 6 48 64 66 75 78 78 73 67 68 66 59 53
324 324 327 331 331 334 338 335 333 334 333 336 336 339 346 339 343 353 13 58 1 310 331 343 350 355 348 343 335 330 320 330 347 350 3 2 356 351 327 315 49 283 222 190 131 254 269 348 23 112 95 69 77 272 242 159 131 309 260 183 149 132 122 121 81 63 102 216 216 147 147 152 63 40 24 3 60 62 51 60 62 62 63 62 62 57 49 46
326 326 328 331 332 336 340 337 334 335 336 334 331 338 340 332 344 345 12 38 9 306 322 328 345 0 345 339 338 347 325 324 335 347 359 352 345 355 299 290 353 256 224 114 345 283 223 359 20 63 73 66 48 292 229 135 121 231 233 139 122 114 146 162 145 152 207 235 322 350 132 130 128 145 179 30 79 68 50 46 43 52 62 62 56 49 46 44
330 329 329 331 333 337 341 340 339 340 339 334 330 336 338 336 333 338 71 58 322 336 15 330 347 0 346 345 3 44 323 321 0 337 340 348 350 4 288 238 191 232 328 104 250 275 206 353 359 73 53 33 250 242 181 131 118 239 206 140 109 125 185 163 145 168 233 22 304 284 134 115 121 163 184 64 89 90 72 50 38 54 63 58 49 43 43 43
332 330 329 331 333 338 341 341 343 344 341 339 337 335 335 337 331 57 79 105 298 20 34 341 350 335 345 354 40 28 7 0 26 330 335 4 7 8 1 242 152 180 353 105 209 260 29 299 283 122 102 250 248 247 174 154 250 219 139 105 47 61 79 94 116 129 56 49 241 246 152 118 129 181 194 95 113 144 104 66 46 61 64 55 44 38 39 42
331 329 327 329 334 339 340 341 343 345 345 344 339 334 338 348 51 73 45 253 299 351 321 342 334 326 351 6 2 7 23 21 359 350 356 40 25 23 67 223 81 121 353 21 196 256 309 322 286 97 168 229 241 283 183 179 238 126 109 59 35 40 40 46 68 91 71 299 253 253 130 103 130 189 186 170 180 157 123 89 51 56 61 54 41 36 42 48
329 328 328 331 336 338 340 342 341 343 344 342 335 335 331 350 70 87 106 253 287 334 347 1 337 349 14 31 330 349 5 343 358 12 13 23 21 19 37 49 27 45 9 4 340 299 346 17 268 347 320 287 53 29 113 74 33 81 79 43 34 350 14 30 355 43 105 260 268 257 93 90 110 172 83 345 356 85 106 101 65 54 59 54 38 34 44 50
331 332 332 334 337 338 340 339 339 341 339 340 336 332 43 38 24 91 275 317 330 329 355 334 326 2 10 10 326 327 339 336 2 35 41 28 35 21 32 50 2 14 0 338 328 333 351 269 297 337 346 35 54 6 347 9 34 52 61 60 46 340 5 0 312 341 210 243 243 224 44 73 85 63 52 38 42 77 95 95 79 64 62 53 35 30 41 49
336 336 335 334 337 340 338 336 339 341 337 341 336 343 76 73 321 242 283 327 343 328 342 297 322 348 338 354 349 322 337 338 355 25 83 65 60 41 2 7 54 37 330 293 341 352 336 302 334 10 342 12 55 84 340 337 10 14 105 110 84 71 44 305 276 284 267 250 199 347 25 91 115 70 55 63 71 90 97 89 70 63 63 51 33 28 38 46
337 337 335 337 346 341 338 340 341 342 340 341 342 45 65 65 240 254 301 276 287 335 2 356 328 341 19 27 333 328 9 341 350 18 5 29 51 12 339 348 15 49 20 349 9 25 347 296 326 48 300 352 38 139 161 170 353 320 177 132 127 152 144 250 239 220 254 264 305 335 25 150 155 122 106 96 83 80 86 76 60 58 58 46 30 25 34 42
334 335 337 350 354 343 343 347 342 346 344 337 28 71 93 238 250 189 264 264 304 325 320 354 12 12 6 338 320 8 62 322 341 30 22 33 66 0 348 333 344 33 70 16 316 146 114 263 270 302 291 3 41 247 126 88 40 256 157 94 91 180 145 177 194 179 195 284 317 344 63 43 109 113 124 110 84 64 60 54 48 46 42 37 25 20 26 35
332 331 338 356 351 343 349 350 347 354 342 349 57 64 171 217 240 176 223 298 343 315 323 352 39 43 342 317 330 8 53 332 336 26 26 45 118 328 347 286 323 27 65 99 278 345 31 280 290 332 318 60 80 260 2 63 202 119 86 170 234 177 116 107 246 42 77 96 281 132 116 88 108 135 147 97 72 50 43 35 32 32 31 31 22 14 18 30
333 326 329 349 347 343 345 350 358 352 340 40 86 105 221 203 149 188 246 326 272 17 34 7 0 20 332 313 314 328 352 343 340 23 13 4 46 5 352 316 332 39 48 141 249 285 137 275 299 0 233 337 20 317 0 39 126 81 286 220 229 87 94 98 174 359 33 197 256 112 139 167 170 174 106 48 38 31 27 20 20 22 26 30 17 6 9 25
336 321 328 349 350 346 343 350 353 339 352 57 86 183 214 146 276 244 321 336 249 51 70 69 299 11 68 293 296 305 334 349 348 18 19 337 7 59 43 330 317 55 23 28 257 281 126 284 302 294 190 303 343 34 358 344 66 108 197 200 88 96 246 9 96 335 342 257 285 340 129 174 183 180 74 42 34 26 15 13 15 14 24 30 10 357 0 13
337 330 3 359 357 359 358 355 350 352 54 66 92 207 214 279 287 346 347 346 130 82 77 210 292 8 59 188 276 305 342 3 345 10 48 33 353 52 81 352 285 343 354 4 184 265 71 178 290 277 226 308 352 48 8 322 340 30 37 356 41 142 172 206 159 171 216 241 270 334 332 205 218 117 102 74 49 33 15 8 7 5 23 25 2 351 0 6
333 334 13 359 359 1 356 358 16 47 71 88 167 194 336 296 306 16 0 348 60 88 31 209 167 352 322 308 319 312 358 26 334 347 18 10 344 18 67 43 296 320 337 355 136 336 7 130 259 285 327 352 346 18 41 305 335 355 18 6 342 330 314 315 28 101 133 194 199 208 262 226 68 70 103 91 70 48 22 1 354 359 18 14 357 348 356 359
343 49 0 355 356 351 352 19 35 60 86 94 150 153 353 340 345 358 3 9 43 77 150 159 141 140 307 349 344 300 342 348 345 334 298 344 28 23 15 25 319 319 339 4 56 6 349 143 231 288 335 347 279 284 216 180 173 142 90 30 309 295 22 46 316 319 67 139 175 178 253 225 67 55 90 86 81 58 26 1 349 353 1 360 352 342 342 352
32 62 358 359 356 345 32 53 29 49 95 77 47 37 355 353 7 8 7 20 30 32 79 124 120 138 165 235 281 247 321 306 281 17 285 269 68 51 330 342 330 311 342 346 330 345 67 101 79 279 279 265 276 301 111 155 117 108 85 48 87 57 80 117 226 276 338 351 177 144 272 242 59 64 74 50 26 32 22 7 355 349 347 351 346 335 335 347
61 51 5 6 3 6 84 58 5 18 54 55 3 41 16 16 19 11 10 21 13 358 22 51 65 65 163 218 237 208 245 244 216 220 286 254 258 315 321 341 338 299 92 330 315 355 26 74 13 296 295 310 313 345 34 52 75 75 28 30 55 354 56 143 175 201 256 319 20 61 293 256 180 99 77 45 16 11 11 6 356 344 341 346 342 333 341 347
68 50 29 18 11 24 100 84 54 31 337 317 49 30 11 34 38 18 358 10 13 41 63 30 136 47 306 179 131 227 251 282 263 287 73 174 254 325 333 354 357 24 64 356 317 356 340 241 61 356 339 346 343 352 351 347 34 58 7 0 1 6 33 76 161 67 51 299 81 137 258 269 165 126 65 33 14 5 0 358 352 343 341 343 339 339 346 347
48 44 38 30 31 59 90 103 129 127 233 11 41 11 357 24 37 34 44 45 32 68 110 335 284 250 306 37 58 310 304 216 287 337 37 1 286 329 0 8 10 28 17 327 294 344 298 204 86 76 286 306 302 304 298 294 350 38 23 358 358 24 27 324 252 57 61 290 41 146 225 270 177 146 21 14 6 357 349 349 348 345 343 340 338 344 346 345
47 33 9 22 40 60 71 69 78 108 137 94 51 9 18 16 355 23 46 61 29 22 56 318 288 265 17 32 19 323 321 322 300 9 30 323 283 304 359 9 14 10 359 344 333 16 109 66 52 138 172 207 230 258 267 253 38 43 6 357 360 2 12 69 92 59 180 9 359 217 204 313 246 278 1 360 356 350 344 348 348 344 341 338 338 344 344 344
59 39 347 1 31 50 58 48 45 66 119 107 90 8 0 332 317 12 36 38 15 9 30 46 24 42 26 19 20 305 297 327 358 17 35 297 278 299 348 17 30 5 354 349 349 38 90 27 358 125 161 257 243 281 353 65 71 72 40 11 5 357 18 68 82 339 130 89 311 258 343 344 296 353 6 350 348 350 348 348 344 338 334 331 335 343 343 344
62 90 69 61 26 34 45 25 32 60 67 70 108 28 7 2 356 4 351 346 6 21 27 15 18 36 17 298 41 315 314 341 352 339 37 345 317 329 352 12 38 8 1 5 9 62 106 50 314 85 26 358 15 42 73 86 78 65 63 36 15 17 36 67 83 144 103 129 244 277 341 322 314 20 7 353 349 345 343 339 334 332 330 328 338 343 343 344
81 105 84 75 92 118 71 356 9 60 48 37 62 43 38 40 12 306 259 347 359 9 34 8 327 342 326 248 142 69 326 347 333 313 347 10 343 359 3 340 347 358 3 20 18 47 108 285 283 110 44 20 26 19 62 96 96 64 49 32 23 35 52 67 46 342 13 217 211 6 325 285 197 48 357 353 346 336 334 332 328 329 330 333 343 344 343 343
81 97 104 102 87 54 33 0 5 68 37 24 50 36 67 108 347 296 257 46 353 341 21 357 308 324 338 115 116 58 315 214 251 277 212 43 347 3 25 282 291 344 1 23 346 2 42 333 296 97 61 9 21 26 41 85 106 87 51 26 21 37 48 49 22 355 356 293 290 4 319 275 57 25 353 343 337 330 329 329 327 328 331 339 345 344 343 343
68 77 111 118 74 14 9 8 40 84 40 11 28 329 335 136 276 284 273 58 24 334 3 333 308 324 9 55 65 13 332 43 146 273 135 101 348 110 48 355 280 329 353 12 343 356 29 3 0 65 63 308 342 82 75 81 92 80 39 12 6 24 40 12 333 315 285 286 316 337 319 289 0 356 339 327 329 330 330 329 326 327 340 347 345 344 344 342
56 65 95 121 77 11 9 7 33 63 59 340 345 307 313 302 297 347 33 336 17 43 354 340 330 346 11 32 37 357 341 17 63 53 54 66 106 119 87 59 51 25 343 356 16 23 68 65 27 49 69 286 311 122 157 59 18 337 341 349 326 332 40 353 311 268 243 269 304 304 304 332 342 336 327 323 332 335 332 327 322 326 352 352 346 345 342 338
Height
1539 1539 1538 1538 1537 1537 1537 1536 1536 1536 1535 1535 1534 1534 1533 1532 1532 1531 1531 1530 1530 1529 1529 1528 1528 1528 1527 1526 1526 1525 1524 1523 1523 1523 1523 1522 1522 1522 1521 1520 1520 1519 1519 1518 1518 1519 1519 1520 1520 1520 1520 1520 1520 1520 1521 1521 1521 1522 1524 1527 1528 1529 1527 1521 1521 1521 1518 1516 1517 1517 1516 1518 1518 1518 1519 1520 1520 1520 1520 1519 1519 1519 1518 1518 1518 1519 1519 1520
1540 1539 1539 1538 1538 1537 1537 1536 1536 1536 1535 1535 1534 1534 1533 1532 1531 1531 1530 1530 1529 1529 1528 1528 1528 1527 1527 1526 1525 1524 1524 1523 1522 1522 1522 1522 1522 1521 1521 1520 1519 1519 1518 1518 1518 1518 1519 1519 1519 1519 1519 1519 1520 1519 1520 1520 1520 1521 1524 1527 1524 1524 1520 1516 1516 1516 1516 1515 1514 1516 1516 1517 1516 1517 1519 1519 1518 1519 1518 1517 1518 1518 1517 1517 1517 1518 1518 1519
1540 1539 1539 1538 1538 1538 1537 1537 1536 1536 1535 1534 1534 1533 1533 1532 1531 1530 1530 1529 1529 1529 1528 1528 1527 1527 1526 1525 1525 1524 1523 1522 1521 1521 1521 1521 1521 1521 1520 1520 1519 1519 1518 1518 1518 1518 1518 1518 1518 1518 1518 1518 1519 1519 1519 1519 1519 1519 1522 1523 1519 1518 1516 1514 1515 1514 1514 1514 1514 1515 1516 1516 1515 1516 1518 1517 1517 1518 1516 1514 1515 1515 1514 1515 1515 1516 1516 1517
1540 1539 1539 1539 1538 1538 1537 1536 1536 1535 1534 1534 1533 1533 1532 1532 1531 1530 1529 1529 1529 1528 1528 1527 1527 1526 1526 1525 1524 1523 1522 1521 1520 1520 1521 1521 1521 1520 1519 1519 1519 1518 1518 1518 1518 1518 1518 1518 1518 1518 1518 1518 1518 1519 1519 1518 1519 1519 1519 1518 1516 1516 1515 1513 1513 1513 1514 1514 1514 1514 1516 1516 1515 1516 1516 1516 1517 1516 1512 1510 1512 1512 1512 1513 1514 1514 1515 1516
1540 1540 1539 1539 1538 1538 1537 1536 1535 1535 1534 1533 1533 1532 1532 1531 1531 1530 1529 1529 1528 1528 1527 1527 1527 1526 1526 1525 1524 1523 1523 1522 1520 1520 1520 1520 1520 1519 1519 1518 1518 1517 1517 1517 1517 1517 1517 1517 1517 1518 1518 1518 1518 1518 1518 1517 1518 1518 1516 1515 1514 1516 1515 1512 1513 1513 1513 1514 1514 1514 1515 1514 1514 1515 1514 1514 1514 1510 1508 1509 1510 1511 1511 1512 1513 1513 1514 1514
1540 1540 1539 1539 1538 1538 1537 1536 1536 1535 1534 1533 1533 1532 1532 1531 1530 1530 1529 1529 1528 1527 1527 1527 1526 1526 1525 1524 1523 1523 1523 1522 1520 1520 1520 1520 1519 1518 1518 1517 1517 1517 1516 1516 1516 1516 1516 1517 1517 1517 1518 1518 1518 1518 1517 1517 1517 1517 1515 1514 1514 1514 1513 1512 1513 1513 1513 1513 1514 1514 1514 1513 1514 1513 1512 1512 1509 1506 1508 1510 1510 1511 1511 1512 1512 1512 1513 1513
1540 1540 1540 1539 1539 1538 1537 1537 1536 1535 1534 1533 1533 1532 1532 1531 1530 1530 1529 1528 1528 1527 1527 1526 1526 1525 1525 1524 1523 1522 1522 1521 1520 1520 1519 1519 1518 1517 1517 1517 1516 1516 1516 1516 1516 1516 1516 1516 1516 1517 1518 1518 1518 1517 1517 1516 1517 1517 1516 1514 1514 1514 1513 1513 1513 1513 1513 1513 1513 1514 1513 1513 1513 1513 1512 1510 1506 1507 1509 1509 1510 1510 1510 1510 1511 1511 1511 1512
1541 1540 1540 1539 1539 1538 1537 1537 1536 1535 1535 1534 1533 1532 1532 1531 1530 1530 1529 1528 1527 1527 1526 1526 1525 1525 1524 1523 1522 1521 1521 1520 1519 1519 1518 1518 1517 1516 1516 1516 1516 1515 1515 1515 1515 1516 1516 1516 1516 1516 1517 1517 1517 1517 1517 1516 1516 1517 1516 1514 1514 1514 1513 1513 1513 1513 1513 1513 1513 1514 1513 1513 1513 1513 1511 1507 1506 1508 1509 1509 1509 1509 1509 1509 1510 1510 1511 1512
1541 1540 1540 1539 1539 1538 1538 1537 1536 1536 1535 1534 1533 1533 1532 1531 1530 1529 1529 1528 1527 1526 1526 1525 1525 1524 1523 1523 1522 1521 1520 1519 1519 1519 1518 1517 1516 1516 1516 1515 1515 1515 1515 1515 1515 1515 1515 1515 1515 1515 1516 1517 1517 1516 1517 1517 1517 1516 1515 1515 1515 1514 1514 1513 1513 1513 1513 1513 1513 1513 1513 1513 1513 1513 1510 1506 1506 1508 1508 1508 1508 1507 1508 1508 1509 1510 1510 1511
1541 1541 1540 1540 1539 1539 1538 1537 1536 1536 1535 1534 1533 1532 1532 1531 1530 1529 1528 1528 1526 1526 1525 1525 1524 1524 1523 1522 1522 1521 1519 1519 1519 1518 1518 1517 1516 1515 1515 1515 1515 1515 1514 1514 1514 1515 1515 1515 1515 1515 1516 1516 1516 1516 1517 1517 1516 1515 1515 1515 1514 1514 1513 1513 1512 1512 1513 1512 1512 1513 1513 1512 1513 1513 1510 1507 1507 1508 1507 1507 1507 1507 1507 1508 1509 1510 1511 1512
1542 1541 1541 1540 1539 1539 1538 1537 1536 1535 1534 1534 1533 1532 1531 1530 1529 1529 1528 1527 1526 1525 1525 1524 1523 1523 1522 1522 1522 1521 1519 1519 1518 1518 1517 1516 1516 1515 1514 1515 1514 1515 1514 1514 1514 1514 1515 1515 1515 1515 1515 1515 1515 1516 1516 1515 1515 1515 1515 1514 1513 1513 1512 1511 1511 1511 1512 1512 1512 1512 1512 1512 1513 1512 1511 1509 1508 1508 1507 1507 1506 1507 1507 1508 1509 1510 1512 1513
1542 1541 1541 1540 1540 1539 1538 1537 1536 1535 1534 1533 1532 1531 1531 1530 1529 1528 1527 1526 1525 1524 1524 1523 1523 1522 1522 1521 1520 1520 1518 1518 1518 1517 1517 1516 1515 1515 1514 1514 1514 1514 1514 1514 1514 1514 1514 1514 1514 1514 1514 1514 1514 1515 1514 1514 1515 1514 1515 1514 1513 1512 1511 1509 1509 1510 1510 1511 1511 1512 1512 1510 1510 1512 1512 1511 1509 1507 1507 1506 1506 1507 1507 1508 1509 1511 1512 1513
1543 1542 1541 1541 1540 1539 1538 1537 1536 1535 1534 1533 1532 1531 1530 1529 1528 1527 1526 1525 1524 1524 1523 1523 1522 1522 1521 1520 1519 1519 1518 1518 1517 1517 1516 1515 1515 1514 1514 1514 1514 1514 1513 1513 1513 1513 1514 1514 1514 1513 1513 1513 1513 1513 1513 1514 1514 1513 1515 1515 1514 1513 1510 1509 1509 1509 1510 1511 1510 1512 1513 1507 1508 1514 1513 1511 1509 1507 1507 1506 1507 1507 1508 1509 1510 1511 1512 1514
1543 1542 1542 1541 1540 1539 1538 1537 1536 1535 1534 1533 1531 1530 1529 1528 1527 1526 1525 1524 1524 1523 1523 1522 1522 1521 1521 1519 1518 1518 1518 1517 1517 1516 1516 1515 1514 1513 1513 1513 1513 1513 1513 1513 1512 1513 1513 1513 1513 1513 1512 1513 1512 1513 1513 1514 1514 1514 1515 1516 1519 1517 1510 1507 1509 1509 1509 1511 1510 1512 1515 1508 1508 1515 1514 1511 1510 1508 1508 1508 1508 1508 1508 1509 1510 1511 1512 1515
1543 1543 1542 1541 1540 1539 1538 1537 1536 1535 1534 1532 1531 1529 1528 1527 1526 1525 1524 1524 1523 1522 1522 1521 1521 1521 1520 1518 1518 1518 1517 1517 1517 1516 1515 1514 1513 1513 1512 1512 1512 1512 1512 1512 1512 1512 1512 1513 1513 1512 1513 1512 1512 1513 1514 1515 1516 1517 1515 1516 1522 1521 1512 1508 1509 1510 1509 1511 1512 1512 1515 1510 1511 1517 1514 1511 1510 1508 1509 1509 1510 1510 1510 1511 1512 1513 1514 1516
1544 1543 1542 1541 1540 1539 1538 1537 1536 1535 1533 1532 1531 1529 1527 1526 1525 1524 1524 1523 1522 1522 1521 1521 1520 1520 1520 1518 1517 1517 1517 1517 1516 1515 1514 1514 1513 1512 1512 1512 1512 1512 1512 1512 1512 1512 1512 1513 1513 1513 1512 1512 1513 1513 1515 1516 1516 1519 1519 1516 1519 1520 1517 1512 1509 1511 1512 1511 1512 1513 1513 1510 1514 1520 1515 1511 1510 1508 1511 1513 1513 1513 1513 1514 1514 1516 1516 1518
1544 1543 1542 1541 1540 1539 1538 1536 1535 1534 1533 1531 1530 1529 1527 1526 1524 1523 1523 1522 1522 1521 1520 1520 1520 1520 1519 1517 1517 1517 1517 1516 1515 1515 1514 1513 1512 1512 1511 1511 1511 1511 1511 1511 1512 1512 1512 1512 1513 1513 1512 1514 1514 1513 1516 1517 1515 1518 1521 1519 1519 1520 1520 1515 1510 1512 1513 1512 1514 1515 1514 1515 1520 1522 1517 1515 1512 1511 1514 1517 1517 1517 1517 1518 1518 1519 1519 1520
1544 1543 1542 1541 1540 1539 1537 1536 1535 1534 1532 1531 1529 1528 1527 1525 1524 1523 1522 1522 1521 1520 1519 1519 1520 1520 1518 1517 1517 1517 1516 1515 1514 1514 1513 1512 1512 1511 1511 1510 1510 1510 1511 1511 1511 1511 1512 1512 1512 1513 1514 1515 1514 1513 1515 1515 1512 1514 1517 1517 1518 1520 1520 1517 1513 1513 1514 1513 1514 1516 1519 1524 1527 1525 1522 1521 1517 1515 1519 1521 1521 1522 1522 1522 1522 1522 1523 1523
1544 1543 1542 1541 1540 1538 1537 1536 1534 1533 1532 1530 1529 1528 1526 1525 1523 1522 1522 1522 1521 1520 1520 1519 1520 1520 1518 1517 1517 1516 1515 1514 1513 1513 1513 1512 1511 1511 1510 1510 1509 1510 1510 1510 1510 1510 1511 1511 1512 1513 1512 1512 1511 1511 1510 1511 1511 1513 1516 1517 1517 1518 1517 1516 1514 1515 1516 1514 1518 1523 1528 1532 1532 1529 1528 1527 1523 1520 1523 1524 1524 1525 1525 1525 1525 1525 1526 1526
1544 1543 1542 1541 1539 1538 1536 1535 1533 1532 1531 1529 1528 1527 1526 1525 1523 1522 1522 1521 1520 1520 1520 1520 1519 1519 1518 1517 1516 1516 1514 1513 1513 1512 1512 1511 1511 1510 1510 1509 1509 1509 1510 1510 1510 1510 1511 1511 1511 1509 1507 1507 1508 1510 1510 1512 1514 1515 1517 1518 1519 1519 1516 1514 1514 1517 1517 1516 1525 1533 1534 1537 1536 1535 1534 1530 1527 1526 1527 1528 1528 1529 1529 1529 1529 1529 1529 1530
1544 1543 1542 1540 1539 1537 1536 1534 1533 1531 1530 1529 1528 1527 1526 1525 1524 1523 1522 1521 1520 1520 1519 1519 1519 1518 1518 1517 1516 1515 1514 1513 1512 1512 1512 1511 1511 1510 1509 1509 1509 1510 1510 1511 1511 1510 1511 1511 1508 1507 1508 1509 1510 1512 1512 1514 1515 1516 1517 1517 1519 1519 1516 1515 1516 1518 1516 1517 1529 1536 1534 1540 1541 1538 1537 1533 1530 1532 1533 1532 1532 1532 1532 1532 1532 1532 1533 1533
1543 1542 1541 1540 1538 1536 1535 1533 1532 1530 1529 1528 1527 1526 1526 1525 1525 1524 1523 1521 1520 1519 1519 1518 1518 1518 1518 1517 1516 1516 1514 1513 1512 1512 1512 1511 1510 1510 1510 1510 1510 1511 1512 1512 1511 1512 1512 1509 1507 1509 1511 1511 1512 1514 1513 1513 1515 1516 1518 1517 1517 1517 1516 1516 1518 1519 1517 1517 1528 1535 1535 1542 1543 1540 1539 1536 1535 1537 1536 1535 1535 1535 1534 1534 1535 1535 1536 1536
1543 1541 1540 1539 1537 1536 1534 1532 1531 1529 1528 1527 1526 1526 1525 1525 1524 1524 1523 1521 1520 1519 1519 1519 1518 1518 1518 1517 1516 1516 1515 1514 1513 1512 1512 1511 1510 1510 1510 1510 1511 1512 1512 1511 1511 1512 1511 1508 1510 1512 1511 1510 1511 1513 1513 1513 1514 1515 1517 1516 1514 1516 1515 1513 1515 1519 1519 1519 1526 1532 1536 1543 1544 1542 1541 1540 1540 1540 1539 1538 1537 1537 1537 1537 1538 1538 1539 1538
1542 1541 1539 1538 1537 1535 1533 1532 1530 1529 1527 1526 1526 1525 1525 1524 1523 1523 1522 1522 1521 1519 1519 1519 1518 1518 1518 1517 1516 1516 1515 1515 1514 1513 1512 1511 1510 1510 1510 1510 1511 1511 1512 1512 1513 1512 1510 1509 1512 1512 1510 1510 1510 1512 1513 1512 1513 1513 1515 1513 1511 1513 1514 1513 1516 1518 1520 1523 1525 1526 1532 1543 1546 1545 1545 1544 1543 1542 1541 1541 1539 1540 1540 1540 1541 1541 1541 1540
1541 1540 1539 1537 1536 1534 1532 1531 1529 1529 1527 1526 1525 1525 1524 1523 1523 1523 1522 1522 1522 1520 1519 1519 1518 1518 1518 1517 1517 1516 1514 1514 1514 1513 1512 1511 1511 1510 1510 1511 1511 1511 1512 1514 1514 1511 1510 1511 1512 1511 1510 1511 1510 1511 1511 1511 1512 1511 1511 1512 1511 1512 1513 1516 1517 1516 1517 1520 1522 1519 1522 1540 1550 1547 1548 1548 1544 1544 1544 1543 1542 1543 1543 1542 1542 1542 1542 1542
1540 1539 1538 1536 1535 1533 1532 1530 1529 1528 1527 1526 1525 1524 1524 1523 1523 1522 1522 1524 1523 1520 1519 1519 1519 1518 1518 1517 1516 1515 1514 1514 1514 1513 1512 1512 1511 1511 1510 1511 1511 1511 1512 1513 1512 1511 1511 1512 1512 1511 1510 1511 1510 1510 1511 1512 1513 1510 1511 1514 1514 1514 1515 1516 1516 1515 1514 1514 1520 1519 1514 1533 1552 1549 1549 1550 1546 1546 1545 1544 1545 1545 1546 1545 1544 1545 1544 1543
1539 1538 1537 1536 1534 1533 1531 1530 1529 1528 1527 1526 1525 1524 1524 1523 1523 1522 1523 1526 1525 1521 1520 1519 1519 1518 1518 1517 1515 1514 1514 1514 1513 1513 1513 1512 1511 1511 1511 1511 1511 1511 1512 1513 1510 1510 1512 1511 1512 1512 1510 1511 1510 1508 1511 1513 1511 1510 1514 1516 1515 1515 1515 1515 1515 1514 1515 1514 1517 1520 1513 1527 1550 1550 1549 1550 1547 1548 1547 1547 1548 1548 1548 1547 1546 1547 1545 1544
1539 1537 1536 1535 1534 1532 1531 1530 1529 1528 1527 1526 1524 1524 1524 1523 1523 1522 1524 1529 1526 1521 1520 1520 1518 1519 1518 1516 1515 1515 1515 1515 1514 1513 1513 1512 1511 1511 1510 1511 1511 1511 1512 1513 1511 1511 1513 1511 1510 1511 1510 1511 1510 1510 1513 1513 1511 1511 1516 1517 1515 1516 1515 1516 1517 1515 1520 1518 1513 1518 1515 1522 1546 1550 1548 1550 1548 1549 1549 1550 1551 1550 1550 1549 1548 1548 1547 1546
1538 1537 1535 1534 1533 1531 1530 1529 1528 1527 1526 1525 1524 1524 1523 1523 1523 1522 1526 1530 1525 1521 1522 1520 1518 1519 1518 1516 1516 1516 1515 1515 1515 1514 1513 1512 1512 1511 1511 1511 1512 1512 1512 1513 1511 1511 1512 1512 1512 1512 1511 1511 1511 1513 1515 1514 1512 1513 1517 1518 1517 1519 1518 1518 1518 1516 1521 1518 1508 1513 1514 1521 1546 1551 1546 1549 1549 1549 1551 1552 1553 1552 1551 1551 1550 1549 1548 1547
1538 1536 1535 1533 1532 1531 1530 1529 1528 1527 1526 1525 1524 1524 1523 1523 1523 1525 1530 1530 1524 1522 1521 1519 1520 1521 1519 1517 1516 1516 1516 1516 1516 1514 1512 1512 1512 1511 1512 1511 1511 1513 1513 1514 1513 1512 1513 1513 1513 1514 1512 1513 1513 1514 1515 1514 1514 1514 1515 1515 1514 1518 1519 1519 1521 1520 1518 1513 1509 1515 1514 1517 1538 1547 1545 1548 1548 1548 1551 1554 1554 1553 1553 1552 1551 1550 1549 1548
1537 1535 1534 1533 1531 1530 1529 1529 1527 1526 1525 1524 1524 1524 1523 1524 1526 1529 1532 1528 1525 1524 1521 1521 1524 1523 1523 1524 1520 1519 1518 1518 1517 1515 1514 1515 1514 1513 1512 1512 1513 1512 1511 1511 1511 1513 1514 1512 1513 1514 1513 1514 1514 1513 1515 1515 1515 1514 1513 1512 1511 1513 1516 1516 1519 1519 1512 1507 1512 1521 1519 1516 1531 1545 1549 1550 1550 1549 1552 1555 1556 1554 1554 1553 1552 1551 1550 1549
1536 1534 1533 1532 1531 1530 1529 1528 1527 1526 1525 1524 1524 1523 1523 1526 1528 1530 1531 1527 1525 1526 1525 1526 1527 1526 1527 1528 1525 1524 1522 1520 1519 1519 1520 1521 1520 1521 1521 1521 1521 1514 1511 1515 1514 1511 1511 1512 1514 1514 1514 1515 1513 1511 1512 1514 1514 1513 1512 1513 1510 1511 1512 1508 1511 1517 1512 1507 1516 1524 1520 1523 1541 1553 1554 1553 1552 1552 1554 1555 1556 1555 1554 1554 1553 1552 1551 1549
1535 1534 1532 1531 1530 1529 1528 1528 1526 1525 1524 1524 1524 1523 1525 1529 1530 1534 1534 1528 1528 1530 1530 1530 1529 1529 1529 1526 1525 1527 1525 1522 1521 1521 1523 1523 1523 1526 1527 1528 1528 1521 1517 1521 1521 1514 1510 1511 1514 1513 1513 1515 1514 1511 1510 1511 1513 1512 1511 1512 1510 1511 1514 1510 1513 1520 1515 1509 1518 1524 1520 1529 1549 1556 1555 1555 1554 1554 1555 1555 1555 1555 1554 1554 1554 1553 1551 1550
1534 1533 1532 1531 1530 1529 1528 1527 1526 1525 1524 1524 1523 1524 1527 1530 1533 1537 1536 1532 1533 1533 1533 1533 1531 1529 1528 1527 1528 1529 1525 1523 1524 1523 1522 1523 1523 1525 1527 1527 1528 1526 1523 1523 1524 1522 1515 1510 1511 1513 1513 1514 1515 1514 1513 1513 1513 1514 1516 1515 1510 1511 1512 1512 1511 1511 1511 1512 1517 1521 1522 1533 1549 1555 1556 1556 1555 1555 1555 1555 1555 1554 1554 1554 1553 1552 1551 1549
1534 1533 1531 1530 1530 1529 1528 1527 1525 1525 1524 1524 1524 1526 1529 1532 1535 1538 1536 1536 1538 1535 1533 1535 1532 1528 1527 1529 1531 1531 1527 1524 1526 1525 1524 1525 1528 1529 1530 1529 1530 1530 1526 1523 1524 1528 1522 1513 1513 1516 1515 1515 1515 1515 1517 1515 1512 1516 1520 1515 1512 1512 1511 1516 1521 1521 1520 1518 1518 1526 1536 1544 1552 1555 1556 1555 1555 1556 1555 1555 1555 1554 1554 1553 1551 1550 1549 1548
1533 1532 1531 1530 1530 1528 1527 1526 1525 1525 1524 1524 1525 1528 1532 1535 1537 1539 1538 1539 1540 1538 1535 1532 1531 1528 1526 1528 1530 1531 1530 1527 1527 1526 1526 1530 1532 1533 1533 1532 1533 1532 1529 1527 1527 1528 1523 1514 1514 1517 1515 1516 1516 1515 1517 1515 1512 1515 1517 1512 1515 1518 1515 1517 1526 1533 1533 1522 1520 1535 1549 1554 1556 1554 1555 1555 1553 1554 1555 1554 1554 1553 1552 1551 1549 1549 1550 1549
1532 1532 1531 1530 1529 1528 1527 1526 1525 1524 1524 1524 1526 1532 1538 1539 1539 1540 1541 1540 1540 1541 1537 1531 1530 1531 1531 1530 1528 1529 1530 1528 1529 1528 1527 1531 1532 1533 1535 1534 1534 1534 1533 1533 1530 1530 1528 1518 1514 1517 1515 1514 1517 1516 1516 1517 1515 1515 1514 1514 1518 1520 1518 1518 1519 1525 1530 1524 1522 1536 1548 1553 1552 1549 1551 1554 1554 1554 1555 1553 1553 1553 1552 1551 1551 1552 1551 1550
1532 1531 1531 1530 1529 1528 1527 1525 1525 1525 1524 1525 1531 1537 1541 1541 1541 1541 1542 1541 1541 1541 1538 1534 1533 1534 1535 1534 1531 1533 1532 1528 1529 1531 1530 1531 1532 1533 1536 1535 1534 1534 1535 1534 1530 1531 1533 1523 1515 1517 1517 1515 1517 1516 1514 1516 1517 1516 1515 1517 1518 1515 1514 1518 1518 1517 1521 1522 1523 1535 1547 1549 1547 1548 1552 1555 1556 1556 1556 1555 1554 1553 1553 1553 1554 1553 1552 1550
1532 1531 1531 1530 1529 1527 1527 1526 1525 1524 1523 1528 1535 1539 1541 1541 1542 1542 1541 1541 1541 1540 1538 1539 1538 1536 1537 1537 1535 1536 1537 1533 1533 1534 1532 1532 1533 1534 1538 1537 1535 1534 1534 1534 1532 1530 1533 1527 1517 1516 1518 1517 1515 1515 1514 1515 1517 1516 1517 1518 1519 1518 1517 1519 1521 1520 1520 1521 1525 1534 1543 1547 1549 1552 1556 1557 1558 1559 1557 1557 1556 1555 1555 1555 1554 1554 1552 1550
1531 1531 1531 1530 1529 1528 1527 1526 1525 1525 1527 1533 1539 1540 1541 1542 1541 1542 1542 1541 1542 1540 1540 1542 1542 1539 1538 1539 1539 1539 1539 1538 1537 1536 1534 1534 1534 1534 1539 1540 1537 1535 1534 1533 1533 1531 1532 1530 1522 1516 1517 1516 1515 1518 1520 1520 1520 1518 1517 1517 1519 1521 1522 1522 1525 1527 1524 1521 1527 1531 1534 1546 1555 1554 1555 1558 1559 1559 1558 1558 1557 1556 1556 1555 1554 1553 1551 1549
1531 1531 1531 1530 1529 1528 1527 1526 1528 1530 1534 1539 1541 1541 1542 1542 1542 1542 1542 1542 1542 1541 1541 1542 1542 1541 1540 1540 1541 1542 1540 1538 1538 1537 1535 1536 1534 1534 1538 1541 1539 1538 1535 1532 1534 1534 1532 1532 1528 1521 1518 1516 1518 1524 1525 1524 1524 1523 1521 1523 1525 1524 1523 1523 1524 1531 1530 1525 1530 1531 1529 1545 1560 1556 1555 1560 1558 1558 1559 1558 1557 1556 1555 1555 1554 1552 1550 1549
1531 1532 1532 1530 1529 1528 1527 1529 1534 1536 1537 1540 1541 1542 1543 1542 1542 1542 1542 1542 1542 1541 1542 1542 1542 1543 1543 1541 1541 1543 1541 1538 1537 1537 1536 1537 1537 1537 1539 1541 1540 1540 1538 1534 1535 1536 1535 1535 1533 1527 1522 1522 1523 1526 1527 1525 1526 1526 1526 1530 1532 1527 1526 1526 1524 1528 1531 1528 1533 1533 1530 1546 1561 1557 1557 1560 1558 1558 1559 1557 1557 1556 1554 1554 1552 1551 1549 1548
1532 1532 1532 1530 1529 1528 1527 1531 1536 1539 1540 1542 1543 1543 1543 1543 1543 1542 1542 1542 1542 1542 1541 1542 1543 1542 1542 1543 1542 1542 1541 1538 1537 1537 1537 1538 1539 1540 1541 1541 1540 1540 1539 1537 1536 1537 1536 1535 1533 1527 1523 1524 1525 1526 1527 1526 1526 1527 1530 1536 1537 1534 1533 1532 1530 1531 1531 1530 1535 1533 1532 1547 1560 1558 1558 1559 1558 1558 1557 1556 1556 1554 1553 1553 1551 1549 1548 1546
1533 1533 1532 1531 1529 1527 1528 1533 1536 1539 1543 1543 1543 1543 1543 1543 1543 1543 1543 1543 1542 1543 1542 1542 1543 1542 1542 1543 1542 1542 1541 1538 1536 1537 1539 1539 1540 1541 1541 1541 1540 1540 1539 1538 1538 1537 1534 1533 1533 1530 1525 1523 1523 1525 1525 1525 1528 1532 1538 1542 1542 1540 1538 1535 1536 1535 1533 1538 1544 1538 1535 1548 1558 1558 1558 1558 1557 1557 1556 1556 1556 1554 1553 1552 1549 1548 1547 1545
1533 1533 1533 1532 1530 1528 1531 1536 1537 1539 1543 1543 1542 1544 1544 1543 1543 1543 1543 1544 1544 1544 1543 1543 1543 1543 1543 1543 1542 1542 1542 1539 1538 1538 1540 1540 1540 1541 1541 1540 1541 1540 1540 1540 1540 1539 1536 1535 1535 1533 1531 1528 1527 1529 1529 1529 1534 1539 1544 1546 1543 1542 1539 1534 1533 1532 1533 1544 1550 1543 1543 1551 1556 1556 1557 1557 1557 1556 1556 1556 1555 1554 1553 1551 1549 1547 1545 1543
1534 1534 1534 1534 1532 1531 1534 1538 1538 1539 1542 1542 1542 1544 1545 1543 1544 1544 1544 1544 1544 1544 1543 1543 1543 1543 1543 1543 1541 1541 1541 1542 1541 1539 1540 1540 1540 1541 1541 1541 1541 1540 1540 1540 1539 1540 1539 1539 1540 1537 1536 1536 1534 1536 1536 1535 1537 1541 1546 1548 1547 1547 1545 1539 1535 1536 1542 1549 1548 1548 1553 1554 1554 1557 1557 1557 1557 1556 1555 1554 1553 1552 1551 1549 1548 1546 1544 1543
1535 1537 1538 1537 1535 1535 1537 1539 1539 1540 1542 1542 1542 1545 1546 1544 1544 1544 1544 1544 1544 1544 1544 1543 1544 1543 1543 1543 1543 1541 1541 1543 1542 1541 1542 1543 1543 1542 1541 1541 1541 1540 1540 1540 1539 1540 1538 1538 1542 1541 1540 1542 1543 1542 1541 1540 1543 1548 1551 1551 1550 1549 1546 1542 1542 1547 1552 1550 1546 1551 1558 1553 1552 1559 1559 1558 1558 1556 1555 1554 1552 1552 1550 1548 1547 1545 1543 1542
1536 1539 1541 1539 1538 1540 1540 1541 1542 1542 1543 1543 1545 1547 1546 1546 1546 1545 1544 1544 1544 1544 1543 1543 1544 1545 1545 1546 1545 1542 1541 1541 1540 1542 1545 1546 1545 1543 1541 1541 1541 1540 1541 1540 1539 1541 1538 1538 1543 1544 1543 1547 1548 1546 1545 1545 1550 1555 1555 1554 1554 1552 1548 1548 1551 1554 1555 1551 1548 1553 1556 1554 1555 1560 1560 1558 1558 1556 1555 1555 1553 1552 1550 1547 1545 1544 1542 1540
1538 1539 1541 1540 1541 1543 1544 1543 1544 1544 1544 1545 1546 1547 1547 1547 1547 1547 1547 1545 1544 1545 1544 1543 1544 1546 1547 1547 1546 1544 1543 1542 1541 1543 1546 1547 1547 1546 1544 1543 1542 1541 1541 1540 1540 1542 1539 1539 1544 1545 1544 1548 1549 1548 1548 1549 1552 1558 1558 1558 1558 1556 1555 1554 1555 1556 1555 1554 1554 1556 1557 1556 1558 1560 1559 1558 1558 1556 1556 1554 1552 1550 1548 1546 1544 1542 1540 1538
1539 1539 1540 1540 1542 1544 1544 1544 1544 1544 1545 1546 1545 1547 1549 1548 1547 1548 1548 1546 1545 1545 1546 1545 1545 1547 1547 1548 1546 1546 1547 1547 1545 1546 1549 1548 1548 1549 1548 1547 1546 1544 1542 1542 1543 1542 1538 1540 1546 1546 1543 1547 1551 1552 1552 1552 1553 1558 1561 1561 1560 1559 1558 1558 1557 1558 1557 1555 1556 1559 1558 1557 1557 1558 1558 1558 1557 1556 1555 1553 1551 1549 1546 1545 1543 1541 1539 1536
1540 1540 1540 1540 1543 1545 1545 1545 1545 1544 1545 1547 1547 1548 1549 1549 1548 1548 1548 1548 1547 1547 1548 1548 1548 1548 1548 1548 1548 1548 1549 1549 1549 1549 1550 1549 1549 1550 1550 1550 1550 1546 1545 1545 1545 1544 1542 1542 1546 1544 1540 1544 1551 1552 1554 1556 1554 1554 1559 1563 1562 1561 1560 1560 1560 1560 1559 1557 1558 1558 1557 1556 1558 1558 1558 1558 1557 1555 1554 1552 1549 1547 1545 1543 1541 1539 1537 1534
1541 1540 1541 1540 1543 1547 1546 1546 1547 1545 1546 1550 1551 1550 1549 1549 1550 1549 1547 1548 1549 1549 1549 1549 1549 1548 1548 1548 1549 1550 1550 1550 1550 1550 1550 1550 1550 1550 1550 1551 1550 1548 1548 1547 1547 1549 1549 1545 1546 1546 1540 1542 1550 1553 1555 1555 1547 1547 1559 1565 1564 1562 1562 1562 1561 1560 1561 1560 1560 1559 1558 1559 1560 1559 1557 1556 1555 1553 1552 1550 1548 1545 1543 1542 1540 1537 1534 1532